{"data":{"norad_id":58163,"intl_designator":"2023-166P","name":"STARLINK-30763","alt_names":[],"object_type":"PAYLOAD","status":"ACTIVE","operator":null,"country":"US","launch_date":"2023-10-29","launch_site_code":"AFWTR","launch_vehicle":null,"mission":null,"orbit_class":"UNKNOWN","rcs_meters":null,"size_class":null,"mass_kg":null,"dimensions":null,"purposes":["comms"],"wikipedia_slug":null,"has_3d_model":false,"image_url":null,"decayed_at":null,"tle_current":{"epoch":"2026-05-25T04:51:55.018368Z","epoch_age_seconds":61539,"freshness":"FRESH","line1":"1 58163U 23166P   26145.20272012  .00001022  00000+0  46605-4 0  9994","line2":"2 58163  53.1595 211.6445 0000908  84.4042 275.7063 15.30201401145068","mean_motion":15.30201401,"eccentricity":9.08e-5,"inclination_deg":53.1595,"raan_deg":211.6445,"arg_perigee_deg":84.4042,"mean_anomaly_deg":275.7063,"bstar":4.6605e-5,"rev_number":14506,"period_min":94.105259546812,"perigee_km":474.58860230097,"apogee_km":475.83317027712,"semimajor_km":6853.347886289,"source":"CELESTRAK","updated_at":"2026-05-25T13:38:18.539308Z"}}}